SL-12 DEB, 36882

Orbit data source: Space-Track

SL-12 DEB, 36882 is space debris in LEO originally from a launch on Tue, 10 Jan 1989 UTC launched from the Tyuratam Missile And Space Complex (TTMTR). Debris objects in space refer to the collection of defunct objects orbiting the Earth. Examples of debris include non-operational satellites, rocket bodies, and fragments generated from explosions, collisions, or faulty payload assembly.

Loading next visibility...
Identifier
36882, 1989-001V
Orbit
LEO
Country
Flag of CISCIS
Related business
Manufacturer
Unknown
Mission
Spacecraft
Bus & Motor
Unknown
Mass
Unknown
Launch date (UTC)
1989-01-10 (37 years ago)
Launch vehicle
Unknown
Launch site
Tyuratam Missile And Space Complex (TTMTR)
Object type
Payload
Rocket body
Debris
Shape & HBR
Unknown shape, 0.1 m
Radar Cross Section
Medium (>0.1 m² and <1 m²)

Expand to show TLE details & history
Last TLE update: 3 days ago

TLE from 3 days ago
0 SL-12 DEB
1 36882U 89001V   26170.62669555  .00012579  00000-0  35176-1 0  9992
2 36882  64.8440   1.0937 2005652  66.2167 313.5712 10.26368883556512
Epoch: 2026-06-19T15:02Z
TLE epoch observation values (Epoch: 2026-06-19T15:02:26.495Z)
Latitude
-0.00009°
Longitude
-132.3697°
Altitude
1,562.92 km
Speed
7.474 km/s
True Right ascension
00h 04m 22s
True Declination
0° 00' 00"
Sunlit
Object was in daylight at epoch
Visualization orbit readout
Latitude
Unknown
Longitude
Unknown
Altitude
Unknown
Speed
Unknown
Apparent Right ascension
Unknown
Apparent Declination
Unknown
Sunlit
N/A
Visualization observer readout
Local Sidereal Time
02:14:05
Azimuth
Unknown
Elevation
Unknown
Doppler factor
Unknown
Orbital elements
Apogee altitude
4,358.312 km
Perigee altitude
771.071 km
Semi-major axis
8,942.829 km
Eccentricity
0.20057
Inclination
64.844°
RAAN
1.0937°
Arg. of periapsis
66.2167°
True anomaly
293.87916°
Mean anomaly
313.5712°
Eccentric anomaly
304.04988°
Mean motion
2.56644 °/min
Orbital period
140.27 mins
BSTAR
0.035176
Loading maneuver chart data...
Computing Atmospheric mass density...

Documentation

Showing up to 5 results
|